Time,TemperatureF,DewpointF,PressureIn,WindDirection,WindDirectionDegrees,WindSpeedMPH,WindSpeedGustMPH,Humidity,HourlyPrecipIn,Conditions,Clouds,dailyrainin,SoftwareType,DateUTC
2013-01-01 00:02:00,39.0,25.0,29.91,WSW,250,6.0,-999.0,55,0.00,,,-99.99,,2013-01-01 05:02:00,
2013-01-01 00:11:00,39.0,25.0,29.91,WSW,250,6.0,-999.0,55,0.00,,,-99.99,,2013-01-01 05:11:00,
2013-01-01 00:22:00,39.0,27.0,29.91,West,260,6.0,-999.0,60,0.00,,,-99.99,,2013-01-01 05:22:00,
2013-01-01 00:32:00,39.0,27.0,29.91,West,260,7.0,-999.0,60,0.00,,,-99.99,,2013-01-01 05:32:00,
2013-01-01 00:42:00,39.0,27.0,29.91,West,260,7.0,-999.0,60,0.00,,,-99.99,,2013-01-01 05:42:00,
2013-01-01 00:52:00,39.0,27.0,29.89,West,260,7.0,-999.0,60,0.00,,,-99.99,,2013-01-01 05:52:00,
2013-01-01 01:02:00,39.0,27.0,29.89,West,260,7.0,-999.0,60,0.00,,,-99.99,,2013-01-01 06:02:00,
2013-01-01 01:11:00,39.0,27.0,29.89,West,260,7.0,-999.0,60,0.00,,,-99.99,,2013-01-01 06:11:00,
2013-01-01 01:21:00,39.0,27.0,29.89,West,260,7.0,-999.0,60,0.00,,,-99.99,,2013-01-01 06:21:00,
2013-01-01 01:32:00,39.0,27.0,29.89,West,260,7.0,-999.0,60,0.00,,,-99.99,,2013-01-01 06:32:00,
2013-01-01 02:32:00,39.0,28.0,29.89,WSW,250,7.0,-999.0,64,0.00,,,-99.99,,2013-01-01 07:32:00,
2013-01-01 02:42:00,39.0,28.0,29.89,WSW,250,7.0,-999.0,64,0.00,,,-99.99,,2013-01-01 07:42:00,
2013-01-01 02:52:00,39.0,28.0,29.90,WSW,250,9.0,-999.0,64,0.00,,,-99.99,,2013-01-01 07:52:00,
2013-01-01 03:01:00,39.0,28.0,29.90,WSW,250,9.0,-999.0,64,0.00,,,-99.99,,2013-01-01 08:01:00,
2013-01-01 03:11:00,39.0,28.0,29.90,WSW,250,9.0,-999.0,64,0.00,,,-99.99,,2013-01-01 08:11:00,
2013-01-01 03:21:00,39.0,28.0,29.90,WSW,250,9.0,-999.0,64,0.00,,,-99.99,,2013-01-01 08:21:00,
2013-01-01 03:32:00,41.0,28.0,29.91,WSW,250,9.0,-999.0,60,0.00,,,-99.99,,2013-01-01 08:32:00,
2013-01-01 03:42:00,41.0,28.0,29.91,WSW,250,9.0,-999.0,60,0.00,,,-99.99,,2013-01-01 08:42:00,
2013-01-01 03:53:00,41.0,28.0,29.91,WSW,250,9.0,-999.0,60,0.00,,,-99.99,,2013-01-01 08:53:00,
2013-01-01 04:02:00,41.0,28.0,29.91,WSW,250,9.0,-999.0,60,0.00,,,-99.99,,2013-01-01 09:02:00,
2013-01-01 04:11:00,41.0,28.0,29.91,WSW,250,9.0,-999.0,60,0.00,,,-99.99,,2013-01-01 09:11:00,
2013-01-01 04:21:00,41.0,30.0,29.90,WSW,250,9.0,-999.0,65,0.00,,,-99.99,,2013-01-01 09:21:00,
2013-01-01 04:32:00,41.0,30.0,29.91,WSW,250,7.0,-999.0,65,0.00,,,-99.99,,2013-01-01 09:32:00,
2013-01-01 04:42:00,41.0,30.0,29.91,WSW,250,7.0,-999.0,65,0.00,,,-99.99,,2013-01-01 09:42:00,
2013-01-01 04:52:00,41.0,30.0,29.91,West,260,10.0,16.0,65,0.00,,,-99.99,,2013-01-01 09:52:00,
2013-01-01 05:01:00,41.0,30.0,29.91,West,260,10.0,16.0,65,0.00,,,-99.99,,2013-01-01 10:01:00,
2013-01-01 05:11:00,41.0,30.0,29.91,West,260,10.0,16.0,65,0.00,,,-99.99,,2013-01-01 10:11:00,
2013-01-01 05:21:00,41.0,30.0,29.91,West,260,10.0,16.0,65,0.00,,,-99.99,,2013-01-01 10:21:00,
2013-01-01 05:32:00,41.0,28.0,29.89,WSW,250,7.0,-999.0,60,0.00,,,-99.99,,2013-01-01 10:32:00,
2013-01-01 05:42:00,41.0,28.0,29.89,WSW,250,7.0,-999.0,60,0.00,,,-99.99,,2013-01-01 10:42:00,
2013-01-01 05:52:00,41.0,30.0,29.88,WSW,240,7.0,-999.0,65,0.00,,,-99.99,,2013-01-01 10:52:00,
2013-01-01 06:01:00,41.0,30.0,29.88,WSW,240,7.0,-999.0,65,0.00,,,-99.99,,2013-01-01 11:01:00,
2013-01-01 06:11:00,41.0,30.0,29.88,WSW,240,7.0,-999.0,65,0.00,,,-99.99,,2013-01-01 11:11:00,
2013-01-01 06:22:00,41.0,30.0,29.88,WSW,240,7.0,-999.0,65,0.00,,,-99.99,,2013-01-01 11:22:00,
2013-01-01 06:32:00,39.0,28.0,29.90,WSW,240,6.0,-999.0,64,0.00,,,-99.99,,2013-01-01 11:32:00,
2013-01-01 06:42:00,39.0,28.0,29.90,WSW,240,6.0,-999.0,64,0.00,,,-99.99,,2013-01-01 11:42:00,
2013-01-01 06:52:00,39.0,28.0,29.91,WSW,240,8.0,-999.0,64,0.00,,,-99.99,,2013-01-01 11:52:00,
2013-01-01 07:02:00,39.0,28.0,29.91,WSW,240,8.0,-999.0,64,0.00,,,-99.99,,2013-01-01 12:02:00,
2013-01-01 07:11:00,39.0,28.0,29.91,WSW,240,8.0,-999.0,64,0.00,,,0.00,,2013-01-01 12:11:00,
2013-01-01 07:21:00,39.0,28.0,29.91,WSW,240,8.0,-999.0,64,0.00,,,0.00,,2013-01-01 12:21:00,
2013-01-01 07:32:00,39.0,28.0,29.91,WSW,240,7.0,-999.0,64,0.00,,,0.00,,2013-01-01 12:32:00,
2013-01-01 07:42:00,39.0,28.0,29.91,WSW,240,7.0,-999.0,64,0.00,,,0.00,,2013-01-01 12:42:00,
2013-01-01 07:52:00,39.0,28.0,29.92,WSW,240,8.0,-999.0,64,0.00,,,0.00,,2013-01-01 12:52:00,
2013-01-01 08:02:00,39.0,28.0,29.92,WSW,240,8.0,-999.0,64,0.00,,,0.00,,2013-01-01 13:02:00,
2013-01-01 08:11:00,39.0,28.0,29.92,WSW,240,8.0,-999.0,64,0.00,,,-99.99,,2013-01-01 13:11:00,
2013-01-01 08:21:00,39.0,28.0,29.91,WSW,250,13.0,17.0,64,0.00,,,-99.99,,2013-01-01 13:21:00,
2013-01-01 08:32:00,39.0,28.0,29.91,WSW,250,13.0,17.0,64,0.00,,,-99.99,,2013-01-01 13:32:00,
2013-01-01 08:42:00,39.0,28.0,29.91,WSW,250,13.0,17.0,64,0.00,,,-99.99,,2013-01-01 13:42:00,
2013-01-01 08:52:00,41.0,28.0,29.91,WSW,250,8.0,-999.0,60,0.00,,,-99.99,,2013-01-01 13:52:00,
2013-01-01 09:01:00,41.0,28.0,29.91,WSW,250,8.0,-999.0,60,0.00,,,-99.99,,2013-01-01 14:01:00,
2013-01-01 09:11:00,41.0,28.0,29.91,WSW,250,8.0,-999.0,60,0.00,,,-99.99,,2013-01-01 14:11:00,
2013-01-01 09:21:00,41.0,28.0,29.91,WSW,250,8.0,-999.0,60,0.00,,,-99.99,,2013-01-01 14:21:00,
2013-01-01 09:32:00,41.0,30.0,29.91,West,260,10.0,-999.0,65,0.00,,,-99.99,,2013-01-01 14:32:00,
2013-01-01 09:42:00,41.0,30.0,29.91,West,260,10.0,20.0,65,0.00,,,-99.99,,2013-01-01 14:42:00,
2013-01-01 09:52:00,41.0,30.0,29.91,West,260,10.0,20.0,65,0.00,,,-99.99,,2013-01-01 14:52:00,
2013-01-01 10:02:00,41.0,30.0,29.91,West,260,10.0,20.0,65,0.00,,,-99.99,,2013-01-01 15:02:00,
2013-01-01 10:11:00,41.0,30.0,29.91,West,260,10.0,17.0,65,0.00,,,-99.99,,2013-01-01 15:11:00,
2013-01-01 10:21:00,41.0,28.0,29.91,West,260,14.0,18.0,60,0.00,,,-99.99,,2013-01-01 15:21:00,
2013-01-01 10:32:00,43.0,28.0,29.91,West,260,12.0,17.0,56,0.00,,,-99.99,,2013-01-01 15:32:00,
2013-01-01 10:42:00,43.0,28.0,29.91,West,260,12.0,17.0,56,0.00,,,-99.99,,2013-01-01 15:42:00,
2013-01-01 10:52:00,43.0,28.0,29.91,West,260,12.0,17.0,56,0.00,,,-99.99,,2013-01-01 15:52:00,
2013-01-01 11:01:00,43.0,28.0,29.91,West,260,12.0,17.0,56,0.00,,,-99.99,,2013-01-01 16:01:00,
2013-01-01 11:11:00,43.0,28.0,29.91,West,260,12.0,17.0,56,0.00,,,-99.99,,2013-01-01 16:11:00,
2013-01-01 11:22:00,43.0,28.0,29.90,WSW,250,10.0,18.0,56,0.00,,,-99.99,,2013-01-01 16:22:00,
2013-01-01 11:32:00,43.0,28.0,29.90,West,260,14.0,20.0,56,0.00,,,-99.99,,2013-01-01 16:32:00,
2013-01-01 11:42:00,43.0,28.0,29.90,West,260,14.0,20.0,56,0.00,,,-99.99,,2013-01-01 16:42:00,
2013-01-01 11:52:00,43.0,28.0,29.89,West,260,12.0,-999.0,56,0.00,,,-99.99,,2013-01-01 16:52:00,
2013-01-01 12:01:00,43.0,28.0,29.89,West,260,12.0,-999.0,56,0.00,,,-99.99,,2013-01-01 17:01:00,
2013-01-01 12:11:00,43.0,28.0,29.89,West,260,12.0,18.0,56,0.00,,,-99.99,,2013-01-01 17:11:00,
2013-01-01 12:21:00,43.0,28.0,29.89,West,260,12.0,17.0,56,0.00,,,-99.99,,2013-01-01 17:21:00,
2013-01-01 12:32:00,43.0,28.0,29.87,West,260,16.0,20.0,56,0.00,,,-99.99,,2013-01-01 17:32:00,
2013-01-01 12:42:00,43.0,28.0,29.87,West,260,16.0,20.0,56,0.00,,,-99.99,,2013-01-01 17:42:00,
2013-01-01 12:52:00,43.0,28.0,29.87,West,260,16.0,20.0,56,0.00,,,-99.99,,2013-01-01 17:52:00,
2013-01-01 13:02:00,43.0,28.0,29.87,West,260,16.0,20.0,56,0.00,,,-99.99,,2013-01-01 18:02:00,
2013-01-01 13:12:00,43.0,28.0,29.87,West,260,16.0,20.0,56,0.00,,,-99.99,,2013-01-01 18:12:00,
2013-01-01 13:22:00,41.0,28.0,29.87,West,270,16.0,20.0,60,0.00,,,-99.99,,2013-01-01 18:22:00,
2013-01-01 13:32:00,41.0,28.0,29.86,West,280,13.0,23.0,60,0.00,,,-99.99,,2013-01-01 18:32:00,
2013-01-01 13:42:00,41.0,28.0,29.86,West,280,13.0,23.0,60,0.00,,,-99.99,,2013-01-01 18:42:00,
2013-01-01 13:52:00,41.0,28.0,29.86,West,280,13.0,23.0,60,0.00,,,-99.99,,2013-01-01 18:52:00,
2013-01-01 14:01:00,41.0,28.0,29.86,West,280,13.0,23.0,60,0.00,,,-99.99,,2013-01-01 19:01:00,
2013-01-01 14:11:00,41.0,28.0,29.86,West,280,13.0,23.0,60,0.00,,,-99.99,,2013-01-01 19:11:00,
2013-01-01 14:21:00,37.0,30.0,29.86,West,270,8.0,-999.0,74,0.00,,,-99.99,,2013-01-01 19:21:00,
2013-01-01 14:32:00,37.0,30.0,29.86,West,270,8.0,-999.0,74,0.00,,,-99.99,,2013-01-01 19:32:00,
2013-01-01 14:42:00,37.0,30.0,29.86,West,270,8.0,-999.0,74,0.00,,,-99.99,,2013-01-01 19:42:00,
2013-01-01 14:52:00,39.0,28.0,29.86,West,270,8.0,-999.0,64,0.00,,,-99.99,,2013-01-01 19:52:00,
2013-01-01 15:01:00,39.0,28.0,29.86,West,270,8.0,-999.0,64,0.00,,,-99.99,,2013-01-01 20:01:00,
2013-01-01 15:11:00,39.0,28.0,29.86,West,270,8.0,-999.0,64,0.00,,,-99.99,,2013-01-01 20:11:00,
2013-01-01 15:22:00,39.0,28.0,29.86,West,270,10.0,16.0,64,0.00,,,-99.99,,2013-01-01 20:22:00,
2013-01-01 15:32:00,39.0,27.0,29.86,West,280,10.0,16.0,60,0.00,,,-99.99,,2013-01-01 20:32:00,
2013-01-01 15:42:00,39.0,27.0,29.86,West,280,10.0,16.0,60,0.00,,,-99.99,,2013-01-01 20:42:00,
2013-01-01 15:52:00,39.0,27.0,29.87,West,280,8.0,-999.0,60,0.00,,,-99.99,,2013-01-01 20:52:00,
2013-01-01 16:02:00,39.0,27.0,29.87,West,280,8.0,-999.0,60,0.00,,,-99.99,,2013-01-01 21:02:00,
2013-01-01 16:11:00,39.0,27.0,29.87,West,280,8.0,-999.0,60,0.00,,,-99.99,,2013-01-01 21:11:00,
2013-01-01 16:22:00,39.0,27.0,29.87,West,280,8.0,-999.0,60,0.00,,,-99.99,,2013-01-01 21:22:00,
2013-01-01 16:32:00,39.0,25.0,29.90,West,280,7.0,-999.0,55,0.00,,,-99.99,,2013-01-01 21:32:00,
2013-01-01 16:42:00,39.0,25.0,29.90,West,280,7.0,-999.0,55,0.00,,,-99.99,,2013-01-01 21:42:00,
2013-01-01 16:52:00,39.0,25.0,29.89,West,270,6.0,-999.0,55,0.00,,,-99.99,,2013-01-01 21:52:00,
2013-01-01 17:02:00,39.0,25.0,29.89,West,270,6.0,-999.0,55,0.00,,,-99.99,,2013-01-01 22:02:00,
2013-01-01 17:11:00,39.0,25.0,29.89,West,270,6.0,-999.0,55,0.00,,,-99.99,,2013-01-01 22:11:00,
2013-01-01 17:21:00,39.0,25.0,29.89,West,270,6.0,20.0,55,0.00,,,-99.99,,2013-01-01 22:21:00,
2013-01-01 17:32:00,39.0,25.0,29.89,West,270,6.0,20.0,55,0.00,,,-99.99,,2013-01-01 22:32:00,
2013-01-01 17:52:00,37.0,21.0,29.91,NW,310,8.0,-999.0,51,0.00,,,-99.99,,2013-01-01 22:52:00,
2013-01-01 18:01:00,37.0,21.0,29.91,NW,310,8.0,-999.0,51,0.00,,,-99.99,,2013-01-01 23:01:00,
2013-01-01 18:11:00,37.0,21.0,29.91,NW,310,8.0,18.0,51,0.00,,,-99.99,,2013-01-01 23:11:00,
2013-01-01 18:21:00,37.0,19.0,29.92,NW,320,10.0,-999.0,47,0.00,,,-99.99,,2013-01-01 23:21:00,
2013-01-01 18:32:00,37.0,19.0,29.93,WNW,300,13.0,18.0,47,0.00,,,-99.99,,2013-01-01 23:32:00,
2013-01-01 18:42:00,37.0,19.0,29.93,WNW,300,13.0,18.0,47,0.00,,,-99.99,,2013-01-01 23:42:00,
2013-01-01 18:52:00,37.0,19.0,29.93,WNW,300,13.0,18.0,47,0.00,,,-99.99,,2013-01-01 23:52:00,
2013-01-01 19:02:00,37.0,19.0,29.93,WNW,300,13.0,18.0,47,0.00,,,-99.99,,2013-01-02 00:02:00,
2013-01-01 19:12:00,36.0,18.0,29.96,NW,320,8.0,-999.0,47,0.00,,,-99.99,,2013-01-02 00:12:00,
2013-01-01 19:22:00,36.0,18.0,29.96,WNW,300,10.0,-999.0,47,0.00,,,-99.99,,2013-01-02 00:22:00,
2013-01-01 19:32:00,36.0,16.0,29.96,NW,310,10.0,18.0,43,0.00,,,-99.99,,2013-01-02 00:32:00,
2013-01-01 19:42:00,36.0,16.0,29.96,NW,310,10.0,18.0,43,0.00,,,-99.99,,2013-01-02 00:42:00,
2013-01-01 19:52:00,36.0,16.0,29.96,NW,310,10.0,18.0,43,0.00,,,-99.99,,2013-01-02 00:52:00,
2013-01-01 20:02:00,36.0,16.0,29.96,NW,310,10.0,18.0,43,0.00,,,-99.99,,2013-01-02 01:02:00,
2013-01-01 20:11:00,36.0,16.0,29.96,NW,310,10.0,18.0,43,0.00,,,-99.99,,2013-01-02 01:11:00,
2013-01-01 20:22:00,34.0,16.0,29.97,NW,310,6.0,-999.0,47,0.00,,,-99.99,,2013-01-02 01:22:00,
2013-01-01 20:32:00,34.0,16.0,29.98,WNW,300,8.0,-999.0,47,0.00,,,-99.99,,2013-01-02 01:32:00,
2013-01-01 20:42:00,34.0,16.0,29.98,WNW,300,8.0,-999.0,47,0.00,,,-99.99,,2013-01-02 01:42:00,
2013-01-01 20:52:00,34.0,16.0,29.97,WNW,300,8.0,-999.0,47,0.00,,,-99.99,,2013-01-02 01:52:00,
2013-01-01 21:02:00,34.0,16.0,29.97,WNW,300,8.0,-999.0,47,0.00,,,-99.99,,2013-01-02 02:02:00,
2013-01-01 21:11:00,34.0,16.0,29.97,WNW,300,8.0,-999.0,47,0.00,,,-99.99,,2013-01-02 02:11:00,
2013-01-01 21:21:00,34.0,16.0,29.97,WNW,300,8.0,-999.0,47,0.00,,,-99.99,,2013-01-02 02:21:00,
2013-01-01 21:32:00,34.0,18.0,29.99,NW,310,12.0,18.0,51,0.00,,,-99.99,,2013-01-02 02:32:00,
2013-01-01 21:42:00,34.0,18.0,29.99,NW,310,12.0,18.0,51,0.00,,,-99.99,,2013-01-02 02:42:00,
2013-01-01 21:52:00,32.0,16.0,29.99,NW,310,13.0,17.0,50,0.00,,,-99.99,,2013-01-02 02:52:00,
2013-01-01 22:01:00,32.0,16.0,29.99,NW,310,13.0,17.0,50,0.00,,,-99.99,,2013-01-02 03:01:00,
2013-01-01 22:11:00,32.0,16.0,29.99,NW,310,13.0,17.0,50,0.00,,,-99.99,,2013-01-02 03:11:00,
2013-01-01 22:21:00,32.0,16.0,30.01,NNW,330,9.0,17.0,50,0.00,,,-99.99,,2013-01-02 03:21:00,
2013-01-01 22:32:00,30.0,16.0,30.01,NNW,330,6.0,17.0,54,0.00,,,-99.99,,2013-01-02 03:32:00,
2013-01-01 22:42:00,30.0,16.0,30.01,NNW,330,6.0,-999.0,54,0.00,,,-99.99,,2013-01-02 03:42:00,
2013-01-01 22:52:00,30.0,14.0,30.02,NNW,330,9.0,-999.0,50,0.00,,,-99.99,,2013-01-02 03:52:00,
2013-01-01 23:02:00,30.0,14.0,30.02,NNW,330,9.0,-999.0,50,0.00,,,-99.99,,2013-01-02 04:02:00,
2013-01-01 23:11:00,30.0,14.0,30.02,NNW,330,9.0,17.0,50,0.00,,,-99.99,,2013-01-02 04:11:00,
2013-01-01 23:21:00,30.0,14.0,30.02,NW,320,12.0,16.0,50,0.00,,,-99.99,,2013-01-02 04:21:00,
2013-01-01 23:32:00,30.0,14.0,30.02,NW,320,12.0,16.0,50,0.00,,,-99.99,,2013-01-02 04:32:00,
2013-01-01 23:42:00,30.0,14.0,30.02,NW,320,12.0,16.0,50,0.00,,,-99.99,,2013-01-02 04:42:00,
2013-01-01 23:52:00,30.0,14.0,30.02,NW,320,12.0,16.0,50,0.00,,,-99.99,,2013-01-02 04:52:00,